Zurück zum Katalog

CZ-6A DEB

AktivPO
NORAD 60767·DEBRIS·🇨🇳 China

Gestartet Aug 6, 2024 von Taiyuan Satellite Launch Center

Loading…

Nächste Überflüge (nächste 24 Stunden)

TLE

AktuellSource: Space-Track

Epoche: Sep 14, 2026, 17:36 UTC

1 60767U 24140ES  26257.73340174  .00000613  00000-0  29295-3 0  9998
2 60767  88.9837 264.0045 0058602 265.8648  93.5841 14.17117361108069

Verfolge CZ-6A DEB in Echtzeit mit AllMySat

Download on the App Store